Weather in Kosykh

Ukraine / Zaporizhia Region     46°27′37″N   35°16′41″E
temp.,
°C
wind,
m/s
gust,
m/s
humid.,
%
clouds,
%
prec.,
mm/h
press.,
hPa
HPBL,
m
30 june, thu
thu3000:00+22nnw44750 0.8 101445
03:00+22ne33725 0.9 101435
06:00+23se47820 0.0 1014190
09:00+25se55615 0.0 1014361
12:00+26se545113 0.0 1014559
15:00+25nnw3456100 0.9 1015638
18:00+23ssw016584 4.4 1014215
21:00+22ne227355 4.4 101416
1 july, fri
fri100:00+20nne34755 0.0 101470
03:00+19ne45630 0.0 1015106
06:00+19nne45670 0.0 1014117
09:00+24nne45500 0.0 1015439
12:00+26e24410 0.0 10151321
15:00+28wnw153811 0.0 10131811
18:00+28nne25390 0.0 10131709
21:00+24nne511460 0.0 1015175
2 july, sat
sat200:00+21ne512510 0.0 1017408
03:00+19ne59560 0.0 1018295
06:00+17ne69580 0.0 1019355
09:00+20ene67380 0.0 10201036
12:00+24ne56320 0.0 10201708
15:00+26nne35310 0.0 10191490
18:00+26n56344 0.0 10181538
21:00+22nne511440 0.0 1019242
3 july, sun
sun300:00+20ne46470 0.0 1020108
03:00+18nne34530 0.0 102072
06:00+17nne34570 0.0 102098
09:00+22n33445 0.0 1020598
12:00+26nne23375 0.0 10191349
15:00+27s35380 0.0 10181569
18:00+27w35392 0.0 10171529
21:00+23w47503 0.0 101795
4 july, mon
mon400:00+22nnw34490 0.0 101854
03:00+21n3451100 0.0 101755
06:00+20nnw34585 0.0 101784
09:00+26n334632 0.0 1017361
12:00+29ssw133675 0.0 10161750
15:00+28ssw443998 0.0 10151104
18:00+28ssw5641100 0.0 1015635
21:00+24sse23565 0.0 101525